Location: M�con, France
(46.3049°N, 4.8371°E)
Time: 08:41:17
(UTC+01:00)

ISS - Visible Passes

Search period start: 25 February 2024 00:00
Search period end: 06 March 2024 00:00
Orbit: 415 x 422 km, 51.6° (Epoch: 25 February)

Date Brightness Start Highest point End Pass type
(mag) Time Alt. Az. Time Alt. Az. Time Alt. Az.
25 Feb -0.5 04:33:08 14° ENE 04:33:08 14° ENE 04:33:40 10° ENE visible
25 Feb -2.6 06:06:04 25° NW 06:07:22 34° N 06:10:30 10° ENE visible
26 Feb -2.4 05:20:07 34° NNE 05:20:07 34° NNE 05:22:39 10° ENE visible
26 Feb -2.5 06:53:37 10° WNW 06:56:46 34° N 06:59:54 10° ENE visible
27 Feb -0.6 04:34:05 15° NE 04:34:05 15° NE 04:34:47 10° ENE visible
27 Feb -2.4 06:07:01 19° NW 06:08:45 32° N 06:11:51 10° ENE visible
28 Feb -2.4 05:20:54 31° N 05:20:54 31° N 05:23:46 10° ENE visible
29 Feb -0.8 04:34:44 16° NE 04:34:44 16° NE 04:35:41 10° ENE visible
29 Feb -2.7 06:07:39 17° NW 06:09:50 38° NNE 06:13:02 10° E visible
01 Mar -2.5 05:21:26 33° N 05:21:39 33° N 05:24:46 10° ENE visible
02 Mar -1.0 04:35:11 19° NE 04:35:11 19° NE 04:36:27 10° ENE visible
02 Mar -3.4 06:08:06 17° NW 06:10:32 61° NNE 06:13:53 10° ESE visible
03 Mar -3.0 05:21:50 43° N 05:22:15 46° NNE 05:25:32 10° E visible
04 Mar -1.2 04:35:34 22° ENE 04:35:34 22° ENE 04:37:03 10° E visible
04 Mar -3.7 06:08:29 18° WNW 06:10:48 66° SSW 06:14:08 10° SE visible
05 Mar -3.9 05:22:14 75° NW 05:22:27 83° NNE 05:25:50 10° ESE visible
